TimeMST,TemperatureF,Dew PointF,Humidity,Sea Level PressureIn,VisibilityMPH,Wind Direction,Wind SpeedMPH,Gust SpeedMPH,PrecipitationIn,Events,Conditions,WindDirDegrees,DateUTC
12:52 AM,24.1,19.0,81,29.58,10.0,Calm,Calm,-,N/A,,Overcast,0,2014-02-28 07:52:00
1:52 AM,19.0,15.1,85,29.62,10.0,NNE,10.4,-,N/A,,Overcast,20,2014-02-28 08:52:00
2:52 AM,26.1,19.9,78,29.61,10.0,North,28.8,38.0,N/A,,Clear,350,2014-02-28 09:52:00
3:52 AM,28.0,21.9,78,29.65,10.0,North,35.7,47.2,N/A,,Overcast,350,2014-02-28 10:52:00
4:52 AM,26.1,19.9,78,29.73,5.0,NNW,35.7,46.0,0.00,Snow,Light Snow,340,2014-02-28 11:52:00
5:52 AM,26.1,18.0,71,29.79,10.0,NNW,28.8,39.1,0.00,,Overcast,340,2014-02-28 12:52:00
6:52 AM,24.1,15.1,69,29.86,9.0,NNW,29.9,43.7,0.00,Snow,Light Snow,340,2014-02-28 13:52:00
7:52 AM,18.0,10.9,74,29.93,10.0,NNW,33.4,44.9,0.00,Snow,Light Snow,340,2014-02-28 14:52:00
8:52 AM,18.0,8.1,65,30.00,9.0,NNW,29.9,41.4,0.00,Snow,Light Snow,340,2014-02-28 15:52:00
9:52 AM,16.0,6.1,65,30.04,9.0,North,33.4,40.3,0.00,Snow,Light Snow,350,2014-02-28 16:52:00
10:52 AM,14.0,6.1,71,30.08,1.5,North,26.5,38.0,0.00,Snow,Light Snow,350,2014-02-28 17:52:00
11:08 AM,14.0,8.6,79,29.92,0.8,North,29.9,35.7,0.00,Snow,Light Snow,350,2014-02-28 18:08:00
11:35 AM,12.2,6.8,79,29.94,1.2,North,34.5,40.3,0.00,Snow,Light Snow,350,2014-02-28 18:35:00
11:43 AM,12.2,6.8,79,29.94,3.0,North,32.2,39.1,0.00,Snow,Light Snow,350,2014-02-28 18:43:00
11:52 AM,12.9,6.1,74,30.09,2.5,North,28.8,36.8,0.00,Snow,Light Snow,350,2014-02-28 18:52:00
12:06 PM,12.2,6.8,79,29.93,1.8,North,29.9,36.8,0.00,Snow,Light Snow,360,2014-02-28 19:06:00
12:11 PM,12.2,5.0,73,29.92,3.0,North,31.1,39.1,0.00,Snow,Light Snow,350,2014-02-28 19:11:00
12:52 PM,14.0,6.1,71,30.07,3.0,North,33.4,39.1,0.00,Snow,Light Snow,360,2014-02-28 19:52:00
1:42 PM,12.2,5.0,73,29.93,2.5,North,26.5,33.4,0.00,Snow,Light Snow,360,2014-02-28 20:42:00
1:52 PM,12.9,5.0,71,30.10,4.0,North,26.5,34.5,0.00,Snow,Light Snow,360,2014-02-28 20:52:00
2:08 PM,10.4,3.2,73,29.94,2.5,North,26.5,32.2,0.00,Snow,Light Snow,360,2014-02-28 21:08:00
2:29 PM,10.4,3.2,73,29.95,5.0,North,24.2,31.1,0.00,Snow,Light Snow,350,2014-02-28 21:29:00
2:52 PM,10.9,3.0,70,30.11,7.0,North,27.6,31.1,0.00,Snow,Light Snow,360,2014-02-28 21:52:00
3:52 PM,10.0,3.0,73,30.14,6.0,North,24.2,32.2,0.00,Snow,Light Snow,350,2014-02-28 22:52:00
4:52 PM,9.0,3.0,77,30.16,2.5,North,16.1,-,0.00,Snow,Light Snow,360,2014-02-28 23:52:00
5:01 PM,8.6,3.2,79,30.01,2.5,North,18.4,-,0.00,Snow,Light Snow,360,2014-03-01 00:01:00
5:30 PM,8.6,3.2,79,30.03,1.8,North,17.3,-,0.00,Snow,Light Snow,360,2014-03-01 00:30:00
5:35 PM,8.6,1.4,73,30.04,3.0,North,17.3,-,0.00,Snow,Light Snow,360,2014-03-01 00:35:00
5:52 PM,7.0,1.9,80,30.21,2.5,North,15.0,-,0.00,Snow,Light Snow,10,2014-03-01 00:52:00
6:07 PM,6.8,1.4,79,30.05,6.0,North,18.4,-,0.00,Snow,Light Snow,10,2014-03-01 01:07:00
6:25 PM,6.8,1.4,79,30.05,2.5,North,18.4,-,0.00,Snow,Light Snow,10,2014-03-01 01:25:00
6:52 PM,6.1,1.0,80,30.24,2.0,North,15.0,-,0.01,Snow,Light Snow,10,2014-03-01 01:52:00
7:08 PM,5.0,-0.4,78,30.07,3.0,North,18.4,-,0.00,Snow,Light Snow,10,2014-03-01 02:08:00
7:52 PM,3.9,-0.9,80,30.28,7.0,NNE,12.7,-,0.00,Snow,Light Snow,20,2014-03-01 02:52:00
8:52 PM,3.9,-0.9,80,30.31,4.0,North,15.0,-,0.00,Snow,Light Snow,360,2014-03-01 03:52:00
9:52 PM,3.0,-0.9,84,30.34,4.0,NNE,9.2,-,0.00,Snow,Light Snow,30,2014-03-01 04:52:00
10:52 PM,1.9,-2.9,80,30.35,6.0,NNE,10.4,-,0.00,Snow,Light Snow,20,2014-03-01 05:52:00
11:16 PM,1.4,-2.2,85,30.14,4.0,NNE,11.5,-,0.00,Snow,Light Snow,30,2014-03-01 06:16:00
11:34 PM,1.4,-2.2,85,30.16,2.5,NNE,9.2,-,0.00,Snow,Light Snow,30,2014-03-01 06:34:00
11:44 PM,1.4,-2.2,85,30.16,2.5,North,8.1,-,0.00,Snow,Light Snow,10,2014-03-01 06:44:00
11:52 PM,1.0,-2.9,83,30.37,2.5,NNE,9.2,-,0.00,Snow,Light Snow,20,2014-03-01 06:52:00